This is the latest recevied weather packets stored in our database for station/object TF3VP-10. If no packets are shown the sender has not sent any weather packets the latest 10 day(s).
| Time | Temp. | Humidity | Pressure | Rain* | Wind** | Luminosity | Snow |
|---|---|---|---|---|---|---|---|
| 1778140247 | -0.56° C | 50% | 1034.8 hPa | - | - | - | - |
| 1778139347 | -0.56° C | 51% | 1034.8 hPa | - | - | - | - |
| 1778138447 | 0° C | 51% | 1034.7 hPa | - | - | - | - |
| 1778137547 | 0° C | 45% | 1034.2 hPa | - | - | - | - |
| 1778136648 | -0.56° C | 45% | 1034.5 hPa | - | - | - | - |
| 1778135748 | -0.56° C | 48% | 1034.5 hPa | - | - | - | - |
| 1778134847 | -1.11° C | 49% | 1034.6 hPa | - | - | - | - |
| 1778133947 | -1.11° C | 53% | 1034.5 hPa | - | - | - | - |
| 1778133047 | -1.11° C | 52% | 1034.5 hPa | - | - | - | - |
| 1778132147 | -1.11° C | 53% | 1034.5 hPa | - | - | - | - |
| 1778131247 | -1.11° C | 52% | 1034.4 hPa | - | - | - | - |
| 1778130348 | -1.11° C | 52% | 1034.8 hPa | - | - | - | - |
| 1778129448 | -1.11° C | 52% | 1035 hPa | - | - | - | - |
| 1778128547 | -1.11° C | 51% | 1035 hPa | - | - | - | - |
| 1778127647 | -1.11° C | 49% | 1034.9 hPa | - | - | - | - |
| 1778126747 | -1.11° C | 51% | 1034.9 hPa | - | - | - | - |
| 1778125848 | -0.56° C | 51% | 1035 hPa | - | - | - | - |
| 1778124947 | -0.56° C | 50% | 1035 hPa | - | - | - | - |
| 1778124047 | -0.56° C | 51% | 1035 hPa | - | - | - | - |
| 1778123147 | -0.56° C | 52% | 1035 hPa | - | - | - | - |
| 1778122248 | -0.56° C | 52% | 1035.2 hPa | - | - | - | - |
| 1778121347 | -1.11° C | 53% | 1035.4 hPa | - | - | - | - |
| 1778120447 | -1.11° C | 54% | 1035.2 hPa | - | - | - | - |
| 1778119547 | -0.56° C | 55% | 1035.3 hPa | - | - | - | - |
| 1778118648 | -0.56° C | 54% | 1035.2 hPa | - | - | - | - |
* Rain since midnight (hover to see other rain measurements)
** Current wind speed in m/s (hover to see current wind gust speed)